Location: ??? ????
(38.0580°N, 23.1536°E)
Time: 23:01:09
(UTC+00:00)

Cosmos 2151 - Pass Details

Date: 13 December 2025
Orbit: 559 x 575 km, 82.5° (Epoch: 14 January)

Event Time Altitude Azimuth Distance (km) Brightness Sun altitude
Rises 15:31:11 0° 353° (N) 2,788 6.2 -4.8°
Reaches altitude 10° 15:33:23 10° 354° (N) 1,887 5.4 -5.2°
Maximum altitude 15:37:33 84° 83° (E) 583 2.9 -6.0°
Drops below altitude 10° 15:41:42 10° 172° (S) 1,877 5.8 -6.7°
Sets 15:43:52 0° 173° (S) 2,771 6.6 -7.1°
